Weather in Broceni

Latvia     56°40′48″N   22°34′07″E
temp.,
°C
wind,
m/s
gust,
m/s
humid.,
%
clouds,
%
prec.,
mm/h
press.,
hPa
HPBL,
m
19 january, wed
wed1923:000wsw616778 0.0 1022557
02:00+2wsw61388100 0.0 1019771
05:00+2wsw51294100 0.0 1017512
08:00+2wsw51296100 0.0 1015426
11:00+2wsw51591100 0.0 1013477
14:00+4wsw61675100 0.0 1010495
17:00+3sw61783100 0.0 1007525
20:00+2sw7189162 0.0 1003548
20 january, thu
thu2023:00+2sw81788100 0.0 999828
02:00+2ssw81689100 0.1 9931084
05:00+1sw91896100 1.2 9871408
08:00−1ssw71393100 1.8 9831007
11:00−2wnw81593100 1.8 9871266
14:00−2w91792100 3.1 9871324
17:00−2wnw101993100 3.2 9851390
20:00−3nw101792100 6.1 9881336
21 january, fri
fri2123:00−3nnw81693100 1.4 9901444
02:00−3nnw81692100 2.4 9941417
05:00−2nnw91883100 0.8 9951555
08:00−2nnw81681100 0.8 9981101
11:00−2nnw71594100 0.9 10001185
14:00−2nnw71582100 1.3 10011308
17:00−3nnw81580100 0.1 10041273
20:00−3nnw71584100 0.1 10051255
22 january, sat
sat2223:00−4nnw61289100 0.1 10061008
02:00−5nnw61295100 0.6 1008998
05:00−4nne6129298 0.8 1010918
08:00−5n61390100 0.9 1014866
11:00−4nnw5129199 0.1 1016931
14:00−3n51194100 0.7 10181004
17:00−3n41093100 0.3 1021863
20:00−3n4109394 0.4 1023718
23 january, sun
sun2323:00−3n4990100 0.1 1025676
02:00−4n3894100 0.1 1027522
05:00−4n2695100 0.1 1028350
08:00−4nne2595100 0.1 1030278
11:00−4e119670 0.0 103278
14:00−3ssw118891 0.0 1033403
17:00−3sw2287100 0.0 103446
20:00−5ssw249592 0.0 1035100